Terminal Aerodrome Forecast
Issued by NWS Mt. Holly, NJ

Home | Current Version | Previous Version | Text Only | Print | Product List | Glossary On
Versions: 1 2 3 4 5 6 7 8 9 10 11 12 13 14 15 16 17 18 19 20 21 22 23 24 25 26 27 28 29 30 31 32 33 34 35 36 37 38 39 40 41 42
000
FTAK31 PANC 282102 AAB
TAFABE
TAF AMD
PABE 282102Z 2821/2918 28008KT P6SM SCT008 OVC015
      TEMPO 2821/2823 BKN008
     FM282300 30011KT P6SM BKN020
     FM290100 32012KT P6SM SCT020 BKN035
     FM290400 35009KT P6SM SCT060=

USA.gov is the U.S. government's official web portal to all federal, state and local government web resources and services.